This is the latest recevied weather packets stored in our database for station/object K1AWR. If no packets are shown the sender has not sent any weather packets the latest 10 day(s).
| Time | Temp. | Humidity | Pressure | Rain* | Wind** | Luminosity | Snow |
|---|---|---|---|---|---|---|---|
| 1778186796 | 16.67° C | 33% | 1007.9 hPa | 0 mm | - | 353 W/m² | - |
| 1778186494 | 16.67° C | 34% | 1008 hPa | 0 mm | - | 81 W/m² | - |
| 1778186192 | 16.67° C | 32% | 1008 hPa | 0 mm | - | 440 W/m² | - |
| 1778185889 | 16.11° C | 33% | 1008.1 hPa | 0 mm | - | 455 W/m² | - |
| 1778185585 | 16.11° C | 34% | 1008 hPa | 0 mm | - | 498 W/m² | - |
| 1778185281 | 16.11° C | 34% | 1008.2 hPa | 0 mm | - | 498 W/m² | - |
| 1778184976 | 17.78° C | 32% | 1008.1 hPa | 0 mm | - | 351 W/m² | - |
| 1778184674 | 17.78° C | 35% | 1008 hPa | 0 mm | - | 502 W/m² | - |
| 1778184369 | 16.67° C | 36% | 1008.2 hPa | 0 mm | - | 512 W/m² | - |
| 1778184065 | 16.67° C | 38% | 1008.3 hPa | 0 mm | - | 170 W/m² | - |
| 1778183763 | 17.78° C | 33% | 1008.1 hPa | 0 mm | - | 584 W/m² | - |
| 1778183460 | 17.22° C | 33% | 1008.4 hPa | 0 mm | - | 615 W/m² | - |
| 1778183156 | 16.67° C | 32% | 1008.2 hPa | 0 mm | - | 580 W/m² | - |
| 1778182852 | 16.67° C | 32% | 1008.2 hPa | 0 mm | - | 600 W/m² | - |
| 1778182549 | 16.11° C | 33% | 1008.1 hPa | 0 mm | - | 595 W/m² | - |
| 1778182246 | 16.11° C | 32% | 1008.4 hPa | 0 mm | - | 617 W/m² | - |
| 1778181942 | 16.67° C | 35% | 1008.5 hPa | 0 mm | - | 214 W/m² | - |
| 1778181639 | 16.67° C | 33% | 1008.4 hPa | 0 mm | - | 649 W/m² | - |
| 1778181335 | 16.11° C | 34% | 1008.4 hPa | 0 mm | - | 651 W/m² | - |
| 1778181032 | 17.22° C | 33% | 1008.6 hPa | 0 mm | - | 652 W/m² | - |
| 1778180729 | 17.22° C | 32% | 1008.5 hPa | 0 mm | - | 694 W/m² | - |
| 1778180428 | 17.78° C | 31% | 1008.6 hPa | 0 mm | - | 670 W/m² | - |
| 1778180126 | 16.67° C | 31% | 1008.6 hPa | 0 mm | - | 683 W/m² | - |
| 1778179822 | 16.67° C | 40% | 1008.7 hPa | 0 mm | - | 728 W/m² | - |
| 1778179521 | 17.22° C | 33% | 1008.8 hPa | 0 mm | - | 706 W/m² | - |
* Rain latest hour (hover to see other rain measurements)
** Current wind speed in m/s (hover to see current wind gust speed)